sat.trackr.live / text

‹ back to catalog

STARLINK-31162

NORAD 58791 · 2024-012E

PAYLOAD ACTIVE UNKNOWN

§ Identity

Operator
Country
US
Launch date
2024-01-15
Launch site
AFETR
Launch vehicle
Mass (kg)
RCS (m²)

Purposes: comms

External: N2YO · Heavens-Above · Gunter

§ Orbital elements

Epoch: 2026-05-25T03:56:24.863424Z

Period
94.27 min
Inclination
43.0036°
Eccentricity
0.0000764
Mean motion
15.27579081 rev/d
Perigee alt
482.5 km
Apogee alt
483.6 km
Semi-major
6,861.2 km
B*
2.4441e-5
RAAN
93.2094°
Arg perigee
278.3671°
Mean anomaly
81.7094°
Rev number
13,293

§ Raw data

STARLINK-311621 58791U 24012E   26145.16417666  .00000411  00000+0  24441-4 0  99982 58791  43.0036  93.2094 0000764 278.3671  81.7094 15.27579081132938

JSON: /api/v1/satellites/58791 · /tle

For live sub-satellite position, see the globe view (requires WebGL).

§ Visibility from observer

Set your observer location to see the next 7 days of passes ≥ 10°. The values pass through the URL so the page stays shareable.

No JS? Fill the form by hand. The geolocation button needs JavaScript.